FW2175 Weather Reports


Display with metric or nautical units.
time (UTC)temp
F
wind
direction
speed
MPH
gust
MPH
rain 1hr
in
rain 24hr
in
rain mn
in
humidity
%
barometer
mb
20260506143044 51 0 0.0 0.0 0.00 0.00 0.00 44 1019.3
20260506141541 51 0 0.0 0.0 0.00 0.00 0.00 44 1019.2
20260506140042 51 0 0.0 1.0 0.00 0.00 0.00 44 1018.8
20260506134545 51 0 0.0 2.0 0.00 0.00 0.00 44 1018.7
20260506133042 50 0 1.0 3.0 0.00 0.00 0.00 44 1018.8
20260506131549 50 0 0.0 1.0 0.00 0.00 0.00 44 1018.9
20260506130057 50 0 1.0 3.0 0.00 0.00 0.00 45 1018.9
20260506124545 50 0 0.0 0.0 0.00 0.00 0.00 45 1019.0
20260506123040 50 0 0.0 1.0 0.00 0.00 0.00 45 1018.6
20260506121544 50 0 0.0 1.0 0.00 0.00 0.00 46 1018.4
20260506120043 50 0 0.0 1.0 0.00 0.00 0.00 46 1018.5
20260506114541 50 0 0.0 0.0 0.00 0.00 0.00 46 1018.5
20260506113050 50 0 0.0 1.0 0.00 0.00 0.00 46 1018.4
20260506111547 49 0 0.0 1.0 0.00 0.00 0.00 46 1018.3
20260506110053 50 0 0.0 0.0 0.00 0.00 0.00 46 1018.2
20260506104551 50 0 0.0 1.0 0.00 0.00 0.00 46 1018.0
20260506103048 50 0 0.0 2.0 0.00 0.00 0.00 46 1017.7
20260506101551 50 0 1.0 2.0 0.00 0.00 0.00 46 1017.7
20260506100058 50 0 0.0 1.0 0.00 0.00 0.00 46 1017.6
20260506094536 49 0 0.0 1.0 0.00 0.00 0.00 46 1017.6
20260506093048 49 0 0.0 2.0 0.00 0.00 0.00 45 1017.6
20260506091541 48 0 0.0 0.0 0.00 0.00 0.00 44 1017.5
20260506090042 49 0 0.0 2.0 0.00 0.00 0.00 45 1017.3
20260506084600 49 63 0.0 2.0 0.00 0.00 0.00 45 1017.4
20260506083039 48 73 0.0 2.0 0.00 0.00 0.00 44 1017.3
20260506081553 49 0 0.0 1.0 0.00 0.00 0.00 44 1017.2
20260506073047 50 84 1.0 2.0 0.00 0.00 0.00 46 1016.7
20260506071541 50 0 0.0 0.0 0.00 0.00 0.00 46 1016.7
20260506061541 51 0 0.0 2.0 0.00 0.00 0.00 51 1016.4
20260506044622 54 59 1.0 3.0 0.00 0.00 0.00 61 1015.9
20260506043046 55 45 2.0 4.0 0.00 0.00 0.00 62 1015.6
20260506041556 56 35 1.0 3.0 0.00 0.00 0.00 62 1015.5
20260506040043 57 47 0.0 2.0 0.00 0.00 0.00 62 1015.4
20260506034610 58 0 0.0 3.0 0.00 0.00 0.00 61 1015.3
20260506033038 59 308 2.0 4.0 0.00 0.00 0.00 60 1015.0
20260506031543 60 306 1.0 4.0 0.00 0.00 0.00 58 1014.9
20260506030042 61 264 2.0 9.0 0.00 0.00 0.00 57 1014.9
20260506024541 62 0 0.0 1.0 0.00 0.00 0.00 56 1014.9
20260506023101 63 0 0.0 2.0 0.00 0.00 0.00 55 1014.8
20260506021543 64 0 0.0 2.0 0.00 0.00 0.00 55 1014.9
20260506020045 64 250 3.0 7.0 0.00 0.00 0.00 54 1014.9
20260506014539 64 254 2.0 7.0 0.00 0.00 0.00 53 1014.9
20260506013041 65 190 1.0 4.0 0.00 0.00 0.00 53 1014.9
20260506011549 65 264 2.0 7.0 0.00 0.00 0.00 54 1014.8
20260506010051 65 0 0.0 8.0 0.00 0.00 0.00 53 1014.9
20260506004600 65 0 2.0 6.0 0.00 0.00 0.00 54 1014.8
20260506003047 65 240 6.0 9.0 0.00 0.00 0.00 54 1015.0
20260506001539 65 197 2.0 9.0 0.00 0.00 0.00 55 1015.0
20260506000036 65 263 3.0 7.0 0.00 0.00 0.00 53 1015.1
20260505234601 65 42 1.0 5.0 0.00 0.00 0.00 53 1015.3
20260505233039 67 316 0.0 8.0 0.00 0.00 0.00 54 1015.4
20260505231537 64 190 3.0 9.0 0.00 0.00 0.00 54 1015.5
20260505230042 63 0 3.0 8.0 0.00 0.00 0.00 56 1015.6
20260505224543 62 294 1.0 4.0 0.00 0.00 0.00 56 1015.8
20260505223042 62 0 0.0 9.0 0.00 0.00 0.00 56 1015.9
20260505221541 61 234 4.0 8.0 0.00 0.00 0.00 56 1016.0
20260505220054 60 0 2.0 5.0 0.00 0.00 0.00 55 1016.1
20260505214543 60 192 1.0 8.0 0.00 0.00 0.00 56 1016.2
20260505213043 60 247 3.0 9.0 0.00 0.00 0.00 55 1016.2
20260505203044 58 273 4.0 9.0 0.00 0.00 0.00 55 1016.4
20260505201545 58 0 1.0 4.0 0.00 0.00 0.00 55 1016.5
20260505200041 57 322 0.0 4.0 0.00 0.00 0.00 55 1016.5
20260505194545 57 0 0.0 4.0 0.00 0.00 0.00 55 1016.5
20260505193046 57 256 3.0 7.0 0.00 0.00 0.00 55 1016.6
20260505191552 57 219 0.0 3.0 0.00 0.00 0.00 54 1016.5
20260505190046 56 254 2.0 7.0 0.00 0.00 0.00 54 1016.5
20260505184544 56 284 2.0 4.0 0.00 0.00 0.00 54 1016.5
20260505183041 56 269 1.0 4.0 0.00 0.00 0.00 54 1016.5
20260505181540 56 248 1.0 4.0 0.00 0.00 0.00 54 1016.3
20260505180050 56 125 0.0 2.0 0.00 0.00 0.00 53 1016.2
20260505174602 56 0 0.0 2.0 0.00 0.00 0.00 52 1016.3
20260505173045 55 144 0.0 4.0 0.00 0.00 0.00 52 1016.2
20260505171541 55 0 0.0 2.0 0.00 0.00 0.00 51 1016.2
20260505170043 55 190 1.0 3.0 0.00 0.00 0.00 50 1016.2
20260505164549 55 209 0.0 2.0 0.00 0.00 0.00 49 1016.2
20260505163046 54 209 0.0 2.0 0.00 0.00 0.00 49 1016.2
20260505161548 54 0 0.0 4.0 0.00 0.00 0.00 49 1016.1
20260505153055 53 71 0.0 7.0 0.00 0.00 0.00 45 1015.9
20260505151550 53 71 2.0 7.0 0.00 0.00 0.00 45 1015.8